| time (UTC) | temp F | wind direction | speed knots | gust knots | rain 1hr in | rain 24hr in | rain mn in | humidity % | barometer mb |
| 20260505040502 | 62 | 357 | 2.6 | 8.7 | 0.00 | 0.00 | 0.00 | 74 | 1013.2 |
| 20260505040003 | 62 | 352 | 1.7 | 8.7 | 0.00 | 0.00 | 0.00 | 74 | 1013.2 |
| 20260505035503 | 62 | 357 | 2.6 | 8.7 | 0.00 | 0.00 | 0.00 | 74 | 1013.1 |
| 20260505035002 | 62 | 354 | 2.6 | 9.6 | 0.00 | 0.00 | 0.00 | 74 | 1013.0 |
| 20260505034002 | 62 | 2 | 3.5 | 13.9 | 0.00 | 0.00 | 0.00 | 74 | 1012.9 |
| 20260505033503 | 62 | 2 | 3.5 | 13.9 | 0.00 | 0.00 | 0.00 | 74 | 1012.8 |
| 20260505032502 | 62 | 3 | 4.3 | 8.7 | 0.00 | 0.00 | 0.00 | 74 | 1013.0 |
| 20260505032003 | 62 | 2 | 3.5 | 8.7 | 0.00 | 0.00 | 0.00 | 74 | 1012.8 |
| 20260505031503 | 62 | 3 | 2.6 | 7.0 | 0.00 | 0.00 | 0.00 | 74 | 1013.0 |
| 20260505031002 | 62 | 2 | 3.5 | 8.7 | 0.00 | 0.00 | 0.00 | 73 | 1012.9 |
| 20260505030503 | 62 | 3 | 3.5 | 8.7 | 0.00 | 0.00 | 0.00 | 73 | 1013.0 |
| 20260505030002 | 62 | 2 | 3.5 | 9.6 | 0.00 | 0.00 | 0.00 | 72 | 1012.8 |
| 20260505025503 | 62 | 5 | 3.5 | 9.6 | 0.00 | 0.00 | 0.00 | 72 | 1012.9 |
| 20260505025003 | 62 | 7 | 2.6 | 6.1 | 0.00 | 0.00 | 0.00 | 72 | 1012.9 |
| 20260505024502 | 62 | 4 | 2.6 | 9.6 | 0.00 | 0.00 | 0.00 | 71 | 1012.9 |
| 20260505023503 | 62 | 4 | 2.6 | 7.0 | 0.00 | 0.00 | 0.00 | 70 | 1013.0 |
| 20260505023002 | 62 | 7 | 2.6 | 7.0 | 0.00 | 0.00 | 0.00 | 70 | 1012.9 |
| 20260505022003 | 63 | 10 | 3.5 | 8.7 | 0.00 | 0.00 | 0.00 | 69 | 1012.9 |
| 20260505021503 | 63 | 11 | 3.5 | 8.7 | 0.00 | 0.00 | 0.00 | 68 | 1012.9 |
| 20260505021003 | 63 | 8 | 3.5 | 10.4 | 0.00 | 0.00 | 0.00 | 68 | 1013.0 |
| 20260505020502 | 63 | 6 | 4.3 | 10.4 | 0.00 | 0.00 | 0.00 | 67 | 1013.1 |
| 20260505020003 | 63 | 11 | 4.3 | 9.6 | 0.00 | 0.00 | 0.00 | 66 | 1012.9 |
| 20260505015002 | 64 | 7 | 3.5 | 12.2 | 0.00 | 0.00 | 0.00 | 65 | 1012.9 |
| 20260505014504 | 64 | 11 | 3.5 | 7.8 | 0.00 | 0.00 | 0.00 | 64 | 1013.1 |
| 20260505014002 | 64 | 8 | 3.5 | 7.8 | 0.00 | 0.00 | 0.00 | 64 | 1013.0 |
| 20260505013503 | 64 | 4 | 4.3 | 10.4 | 0.00 | 0.00 | 0.00 | 63 | 1013.0 |
| 20260505013002 | 64 | 10 | 4.3 | 10.4 | 0.00 | 0.00 | 0.00 | 62 | 1012.9 |
| 20260505012503 | 65 | 11 | 3.5 | 10.4 | 0.00 | 0.00 | 0.00 | 62 | 1012.8 |
| 20260505012002 | 65 | 6 | 3.5 | 8.7 | 0.00 | 0.00 | 0.00 | 61 | 1012.8 |
| 20260505011503 | 65 | 5 | 3.5 | 8.7 | 0.00 | 0.00 | 0.00 | 61 | 1012.8 |
| 20260505011002 | 65 | 5 | 3.5 | 9.6 | 0.00 | 0.00 | 0.00 | 60 | 1012.7 |
| 20260505010502 | 66 | 6 | 4.3 | 9.6 | 0.00 | 0.00 | 0.00 | 59 | 1012.6 |
| 20260505005502 | 66 | 3 | 4.3 | 9.6 | 0.00 | 0.00 | 0.00 | 58 | 1012.5 |
| 20260505005003 | 66 | 3 | 4.3 | 8.7 | 0.00 | 0.00 | 0.00 | 57 | 1012.4 |
| 20260505004503 | 67 | 8 | 3.5 | 8.7 | 0.00 | 0.00 | 0.00 | 56 | 1012.5 |
| 20260505004002 | 67 | 9 | 3.5 | 7.8 | 0.00 | 0.00 | 0.00 | 56 | 1012.4 |
| 20260505003503 | 67 | 7 | 3.5 | 7.0 | 0.00 | 0.00 | 0.00 | 55 | 1012.5 |
| 20260505003003 | 68 | 5 | 3.5 | 7.8 | 0.00 | 0.00 | 0.00 | 54 | 1012.5 |
| 20260505002502 | 68 | 3 | 3.5 | 8.7 | 0.00 | 0.00 | 0.00 | 53 | 1012.5 |
| 20260505002003 | 68 | 3 | 3.5 | 8.7 | 0.00 | 0.00 | 0.00 | 52 | 1012.4 |
| 20260505001503 | 69 | 3 | 3.5 | 8.7 | 0.00 | 0.00 | 0.00 | 50 | 1012.4 |
| 20260505000503 | 69 | 1 | 2.6 | 7.8 | 0.00 | 0.00 | 0.00 | 46 | 1012.4 |
| 20260504235002 | 70 | 2 | 2.6 | 6.1 | 0.00 | 0.00 | 0.00 | 43 | 1012.2 |
| 20260504234502 | 70 | 2 | 3.5 | 7.8 | 0.00 | 0.00 | 0.00 | 41 | 1012.2 |
| 20260504234003 | 71 | 1 | 3.5 | 8.7 | 0.00 | 0.00 | 0.00 | 41 | 1012.1 |
| 20260504233502 | 71 | 358 | 2.6 | 8.7 | 0.00 | 0.00 | 0.00 | 40 | 1012.0 |
| 20260504233003 | 71 | 356 | 2.6 | 7.8 | 0.00 | 0.00 | 0.00 | 39 | 1011.9 |
| 20260504232503 | 71 | 357 | 2.6 | 7.8 | 0.00 | 0.00 | 0.00 | 38 | 1011.9 |
| 20260504231502 | 72 | 357 | 3.5 | 10.4 | 0.00 | 0.00 | 0.00 | 36 | 1012.0 |
| 20260504231003 | 72 | 351 | 2.6 | 9.6 | 0.00 | 0.00 | 0.00 | 36 | 1012.0 |
| 20260504230002 | 72 | 344 | 1.7 | 7.8 | 0.00 | 0.00 | 0.00 | 35 | 1012.0 |
| 20260504225003 | 73 | 345 | 3.5 | 12.2 | 0.00 | 0.00 | 0.00 | 34 | 1012.0 |
| 20260504224003 | 73 | 340 | 4.3 | 11.3 | 0.00 | 0.00 | 0.00 | 33 | 1011.9 |
| 20260504223502 | 74 | 349 | 5.2 | 19.1 | 0.00 | 0.00 | 0.00 | 33 | 1011.9 |
| 20260504223003 | 74 | 352 | 4.3 | 19.1 | 0.00 | 0.00 | 0.00 | 33 | 1012.0 |
| 20260504222502 | 74 | 353 | 3.5 | 10.4 | 0.00 | 0.00 | 0.00 | 33 | 1011.9 |
| 20260504222003 | 74 | 353 | 3.5 | 12.2 | 0.00 | 0.00 | 0.00 | 32 | 1012.1 |
| 20260504221003 | 74 | 355 | 4.3 | 11.3 | 0.00 | 0.00 | 0.00 | 32 | 1012.1 |
| 20260504220003 | 74 | 351 | 3.5 | 9.6 | 0.00 | 0.00 | 0.00 | 33 | 1012.1 |
| 20260504215503 | 74 | 355 | 4.3 | 13.9 | 0.00 | 0.00 | 0.00 | 33 | 1012.2 |
| 20260504215003 | 74 | 355 | 4.3 | 13.9 | 0.00 | 0.00 | 0.00 | 33 | 1012.3 |
| 20260504214503 | 75 | 351 | 2.6 | 7.8 | 0.00 | 0.00 | 0.00 | 34 | 1012.2 |
| 20260504214002 | 75 | 3 | 2.6 | 10.4 | 0.00 | 0.00 | 0.00 | 35 | 1012.2 |
| 20260504213503 | 75 | 354 | 2.6 | 10.4 | 0.00 | 0.00 | 0.00 | 35 | 1012.2 |
| 20260504213002 | 75 | 343 | 2.6 | 9.6 | 0.00 | 0.00 | 0.00 | 34 | 1012.3 |
| 20260504212503 | 75 | 345 | 3.5 | 9.6 | 0.00 | 0.00 | 0.00 | 34 | 1012.3 |
| 20260504212002 | 75 | 344 | 3.5 | 7.8 | 0.00 | 0.00 | 0.00 | 35 | 1012.3 |
| 20260504210503 | 75 | 359 | 3.5 | 13.0 | 0.00 | 0.00 | 0.00 | 34 | 1012.2 |
| 20260504210003 | 75 | 357 | 3.5 | 11.3 | 0.00 | 0.00 | 0.00 | 35 | 1012.3 |
| 20260504205502 | 75 | 354 | 3.5 | 10.4 | 0.00 | 0.00 | 0.00 | 33 | 1012.3 |
| 20260504205003 | 75 | 351 | 2.6 | 10.4 | 0.00 | 0.00 | 0.00 | 34 | 1012.3 |
| 20260504204502 | 75 | 346 | 3.5 | 7.8 | 0.00 | 0.00 | 0.00 | 34 | 1012.3 |
| 20260504204003 | 74 | 346 | 3.5 | 9.6 | 0.00 | 0.00 | 0.00 | 35 | 1012.4 |
| 20260504203003 | 74 | 353 | 3.5 | 10.4 | 0.00 | 0.00 | 0.00 | 34 | 1012.5 |
| 20260504202003 | 75 | 359 | 4.3 | 13.9 | 0.00 | 0.00 | 0.00 | 34 | 1012.6 |
| 20260504201504 | 74 | 6 | 5.2 | 15.6 | 0.00 | 0.00 | 0.00 | 35 | 1012.6 |
| 20260504201003 | 74 | 2 | 5.2 | 15.6 | 0.00 | 0.00 | 0.00 | 34 | 1012.6 |
| 20260504200506 | 74 | 354 | 3.5 | 14.8 | 0.00 | 0.00 | 0.00 | 34 | 1012.6 |
| 20260504200003 | 74 | 356 | 4.3 | 14.8 | 0.00 | 0.00 | 0.00 | 36 | 1012.6 |
| 20260504195502 | 74 | 1 | 4.3 | 13.9 | 0.00 | 0.00 | 0.00 | 33 | 1012.8 |
| 20260504195003 | 74 | 356 | 4.3 | 13.0 | 0.00 | 0.00 | 0.00 | 35 | 1012.9 |
| 20260504194002 | 74 | 5 | 5.2 | 13.9 | 0.00 | 0.00 | 0.00 | 35 | 1012.7 |
| 20260504193503 | 74 | 354 | 4.3 | 13.9 | 0.00 | 0.00 | 0.00 | 34 | 1012.9 |
| 20260504193003 | 74 | 338 | 3.5 | 9.6 | 0.00 | 0.00 | 0.00 | 33 | 1013.0 |
| 20260504191503 | 74 | 347 | 2.6 | 7.0 | 0.00 | 0.00 | 0.00 | 33 | 1013.2 |
| 20260504191002 | 74 | 357 | 3.5 | 12.2 | 0.00 | 0.00 | 0.00 | 34 | 1013.2 |
| 20260504190503 | 74 | 358 | 4.3 | 12.2 | 0.00 | 0.00 | 0.00 | 34 | 1013.2 |
| 20260504190003 | 74 | 353 | 3.5 | 11.3 | 0.00 | 0.00 | 0.00 | 37 | 1013.2 |
| 20260504185502 | 74 | 352 | 3.5 | 11.3 | 0.00 | 0.00 | 0.00 | 32 | 1013.4 |
| 20260504185002 | 74 | 354 | 2.6 | 9.6 | 0.00 | 0.00 | 0.00 | 35 | 1013.3 |
| 20260504184503 | 74 | 356 | 2.6 | 9.6 | 0.00 | 0.00 | 0.00 | 34 | 1013.5 |
| 20260504184002 | 74 | 350 | 2.6 | 7.8 | 0.00 | 0.00 | 0.00 | 32 | 1013.6 |
| 20260504183502 | 74 | 348 | 3.5 | 7.8 | 0.00 | 0.00 | 0.00 | 32 | 1013.6 |
| 20260504183003 | 74 | 352 | 2.6 | 7.8 | 0.00 | 0.00 | 0.00 | 32 | 1013.7 |
| 20260504182502 | 74 | 349 | 3.5 | 8.7 | 0.00 | 0.00 | 0.00 | 34 | 1013.8 |
| 20260504182003 | 74 | 350 | 3.5 | 8.7 | 0.00 | 0.00 | 0.00 | 34 | 1013.8 |
| 20260504181002 | 74 | 350 | 2.6 | 7.8 | 0.00 | 0.00 | 0.00 | 34 | 1013.8 |
| 20260504180503 | 74 | 349 | 2.6 | 7.8 | 0.00 | 0.00 | 0.00 | 33 | 1013.8 |
| 20260504180003 | 74 | 344 | 2.6 | 8.7 | 0.00 | 0.00 | 0.00 | 34 | 1013.8 |
| 20260504175503 | 73 | 348 | 2.6 | 9.6 | 0.00 | 0.00 | 0.00 | 33 | 1013.9 |
| 20260504175003 | 73 | 345 | 2.6 | 9.6 | 0.00 | 0.00 | 0.00 | 34 | 1013.8 |
| 20260504174502 | 73 | 342 | 2.6 | 7.8 | 0.00 | 0.00 | 0.00 | 33 | 1013.8 |
| 20260504174003 | 73 | 347 | 2.6 | 6.1 | 0.00 | 0.00 | 0.00 | 37 | 1013.8 |
| 20260504173503 | 73 | 347 | 2.6 | 6.1 | 0.00 | 0.00 | 0.00 | 36 | 1013.9 |
| 20260504173002 | 73 | 338 | 1.7 | 5.2 | 0.00 | 0.00 | 0.00 | 38 | 1014.1 |
| 20260504172504 | 73 | 338 | 2.6 | 7.8 | 0.00 | 0.00 | 0.00 | 34 | 1014.1 |
| 20260504172002 | 73 | 341 | 2.6 | 7.8 | 0.00 | 0.00 | 0.00 | 34 | 1014.1 |
| 20260504171503 | 73 | 336 | 2.6 | 7.8 | 0.00 | 0.00 | 0.00 | 34 | 1014.2 |
| 20260504171002 | 73 | 337 | 2.6 | 9.6 | 0.00 | 0.00 | 0.00 | 34 | 1014.3 |
| 20260504170503 | 73 | 346 | 3.5 | 9.6 | 0.00 | 0.00 | 0.00 | 33 | 1014.5 |
| 20260504151003 | 70 | 332 | 2.6 | 7.0 | 0.00 | 0.00 | 0.00 | 48 | 1015.3 |
| 20260504150503 | 69 | 326 | 2.6 | 7.0 | 0.00 | 0.00 | 0.00 | 47 | 1015.3 |
| 20260504141002 | 67 | 349 | 3.5 | 12.2 | 0.00 | 0.00 | 0.00 | 47 | 1015.4 |
| 20260504140503 | 67 | 336 | 3.5 | 10.4 | 0.00 | 0.00 | 0.00 | 50 | 1015.6 |
| 20260504130503 | 61 | 339 | 1.7 | 6.1 | 0.00 | 0.00 | 0.00 | 69 | 1016.5 |
| 20260504110503 | 52 | 15 | 1.7 | 5.2 | 0.00 | 0.00 | 0.00 | 81 | 1017.3 |
| 20260504100502 | 51 | 359 | 1.7 | 6.1 | 0.00 | 0.00 | 0.00 | 82 | 1016.9 |
| 20260504081503 | 50 | 357 | 2.6 | 6.1 | 0.00 | 0.00 | 0.00 | 82 | 1017.5 |
| 20260504081003 | 50 | 2 | 2.6 | 5.2 | 0.00 | 0.00 | 0.00 | 82 | 1017.5 |
| 20260504080503 | 50 | 10 | 1.7 | 5.2 | 0.00 | 0.00 | 0.00 | 82 | 1017.5 |
| 20260504050504 | 45 | 26 | 0.9 | 3.5 | 0.00 | 0.00 | 0.00 | 73 | 1017.6 |
| 20260504050003 | 45 | 28 | 1.7 | 3.5 | 0.00 | 0.00 | 0.00 | 73 | 1017.6 |
| 20260504045503 | 45 | 16 | 1.7 | 3.5 | 0.00 | 0.00 | 0.00 | 73 | 1017.5 |
| 20260504045002 | 45 | 13 | 0.9 | 3.5 | 0.00 | 0.00 | 0.00 | 73 | 1017.6 |
| 20260504044503 | 45 | 14 | 0.9 | 2.6 | 0.00 | 0.00 | 0.00 | 73 | 1017.5 |
| 20260504043503 | 45 | 34 | 0.9 | 2.6 | 0.00 | 0.00 | 0.00 | 72 | 1017.4 |
| 20260504043004 | 45 | 11 | 0.9 | 2.6 | 0.00 | 0.00 | 0.00 | 72 | 1017.4 |
| 20260504042503 | 44 | 3 | 0.9 | 2.6 | 0.00 | 0.00 | 0.00 | 72 | 1017.3 |
| 20260504042003 | 45 | 353 | 0.9 | 2.6 | 0.00 | 0.00 | 0.00 | 72 | 1017.3 |
| 20260504041504 | 45 | 356 | 0.0 | 1.7 | 0.00 | 0.00 | 0.00 | 72 | 1017.3 |